Regional Weather Roundup
Issued by NWS

Home | Current Version | Previous Version | Text Only | Print | Product List | Glossary On
Versions: 1 2 3 4 5 6 7 8 9 10 11 12 13 14 15 16 17 18 19 20 21 22 23 24 25 26 27 28 29 30 31 32 33 34 35 36 37 38 39 40 41 42 43 44 45 46 47 48 49 50
000
ASUS43 KTOP 201159
RWRKS

WEATHER ROUNDUP FOR KANSAS
NATIONAL WEATHER SERVICE GOODLAND KS
700 AM CDT WED AUG 20 2014

NOTE:  "FAIR" INDICATES FEW OR NO CLOUDS BELOW 12,000 FEET WITH NO
SIGNIFICANT WEATHER AND/OR OBSTRUCTIONS TO VISIBILITY.

KSZ001>006-013>018-027>032-041>047-201300-
NORTHWEST KANSAS

CITY           SKY/WX    TMP DP  RH WIND       PRES   REMARKS
GOODLAND       PTCLDY    68  60  75 S12       29.82S
6HR MIN TEMP:  68; 6HR MAX TEMP:  76;

HAYS           CLEAR     70  61  73 S5        29.82R
HILL CITY      MOCLDY    73  63  70 S6        29.80S
6HR MIN TEMP:  72; 6HR MAX TEMP:  79;

RUSSELL        CLEAR     71  63  75 S10       29.80R
6HR MIN TEMP:  71; 6HR MAX TEMP:  79;

$$

KSZ061>065-074>080-084>089-201300-
SOUTHWEST KANSAS

CITY           SKY/WX    TMP DP  RH WIND       PRES   REMARKS
DODGE CITY     CLEAR     68  62  81 S10       29.85S
6HR MIN TEMP:  68; 6HR MAX TEMP:  76;

ELKHART          N/A     66  59  78 S12         N/A
GARDEN CITY    PTCLDY    65  62  90 S7        29.83F
6HR MIN TEMP:  65; 6HR MAX TEMP:  73;

GREAT BEND     CLEAR     70  61  73 S8        29.83R
LIBERAL        CLEAR     70  61  73 S12       29.88S
PRATT          CLEAR     70  63  78 S8        29.86R
$$

KSZ066>073-081>083-090>101-201300-
SOUTHEAST KANSAS

CITY           SKY/WX    TMP DP  RH WIND       PRES   REMARKS
CHANUTE        CLEAR     73  69  87 S8        29.88R
6HR MIN TEMP:  71; 6HR MAX TEMP:  78;

COFFEYVILLE    CLEAR     73  71  93 S8        29.88R
6HR MIN TEMP:  73; 6HR MAX TEMP:  79;

HUTCHINSON     CLEAR     72  66  81 S8        29.84S
6HR MIN TEMP:  72; 6HR MAX TEMP:  80;

NEWTON         CLEAR     73  63  68 S13       29.89R
PARSONS        CLEAR     74  70  87 S5        29.89R
6HR MIN TEMP:  74; 6HR MAX TEMP:  78;

WICHITA INTL   PTCLDY    73  67  81 S10       29.85R
6HR MIN TEMP:  72; 6HR MAX TEMP:  79;

WICHITA JABRA  CLEAR     74  67  78 S10       29.85S
6HR MIN TEMP:  72; 6HR MAX TEMP:  80;

WINFIELD       CLEAR     72  69  90 S8        29.87S
6HR MIN TEMP:  72; 6HR MAX TEMP:  78;

$$

KSZ007>012-019>026-033>040-048>060-102>105-201300-
NORTHEAST KANSAS

CITY           SKY/WX    TMP DP  RH WIND       PRES   REMARKS
CONCORDIA      CLEAR     71  66  84 S9        29.80S
6HR MIN TEMP:  71; 6HR MAX TEMP:  80;

EMPORIA        PTCLDY    70  68  93 S8        29.85R
6HR MIN TEMP:  70; 6HR MAX TEMP:  76;

LAWRENCE       PTCLDY    74  68  81 SE6       29.85R
6HR MIN TEMP:  74; 6HR MAX TEMP:  81;

MANHATTAN      PTCLDY    74  68  81 SW6       29.81S
6HR MIN TEMP:  74; 6HR MAX TEMP:  81;

OLATHE IND     PTCLDY    75  69  81 S9        29.88R
6HR MIN TEMP:  75; 6HR MAX TEMP:  79;

OLATHE EXE     PTCLDY    72  69  90 S6        29.87R
6HR MIN TEMP:  72; 6HR MAX TEMP:  79;

SALINA         CLEAR     73  66  78 S8        29.81S
6HR MIN TEMP:  72; 6HR MAX TEMP:  81;

TOPEKA BILLARD PTCLDY    74  69  85 CALM      29.84R
6HR MIN TEMP:  73; 6HR MAX TEMP:  81;

TOPEKA FORBES  PTCLDY    73  68  84 S5        29.85R
6HR MIN TEMP:  73; 6HR MAX TEMP:  77;

$$



USA.gov is the U.S. government's official web portal to all federal, state and local government web resources and services.